www.pogodaiklimat.ru

Погода и климат >> Архив погоды >> Россия >> Приморский край >> Пограничный


АРХИВ ПОГОДЫ в Пограничном

Время (UTC), дата Ветер
(напр.,м/с)
 
Видим.   Явления Облачность Т
(С)
Тd
(С)
f
(%)
Тe
(С)
Тes
(С)
Комфортность P
(гПа)
Po
(гПа)
Тmin
(С)
Tmax
(С)
R
(мм)
R24
(мм)
S
(см)
03 12.08 Ю 2 10 км слаб. дождь 10/10 600 м
[Frnb Ns]
+20.6 +19.7 95 +26 +26 душно 1006.5 981.6
06 12.08 Ю 1 50 км {дождь} 10/6 600 м
[Cb cap As trans Cs]
+21.6 +20.1 91 +27 +30 душно 1006.3 981.4
09 12.08 Ю 2 50 км 10/8 600 м
[Cb cap As trans Cs]
+22.1 +20.2 89 +28 +28 душно 1006.2 981.4 +22.9 2
12 12.08 СВ 2 20 км 10/6 600 м
[Cb cap As trans Cs]
+19.7 +19.3 98 +23 +23 комфорт 1007.8 982.7
15 12.08 В 1 4000 м дымка 10/0
[Cs]
+18.3 +18.0 98 +20 +20 1008.5 983.3
18 12.08 С 1 4000 м дымка 10/0
[Cs]
+18.4 +18.1 98 +20 +20 1008.7 983.5
21 12.08 В 1 1000 м дымка 10/0
[As trans]
+18.6 +18.3 98 +21 +21 комфорт 1009.1 983.9 +18.2
00 13.08 В 2 50 км {дождь} 10/8 600 м
[Sc As op]
+19.6 +19.3 98 +23 +23 комфорт 1009.1 984.0
03 13.08 ЮВ 1 50 км 10/8 600 м
[Cu hum As trans Ci fib]
+22.2 +18.9 82 +28 +30 душно 1009.2 984.4
06 13.08 ЮВ 1 50 км 10/5 600 м
[Cb cap Ac As Ci fib]
+22.7 +19.5 82 +29 +32 очень
душно
1008.1 983.3
09 13.08 В 1 10 км слаб. дождь 10/10 600 м
[Frnb Ns]
+20.3 +19.5 95 +25 +25 комфорт 1008.2 983.2 +23.5 1
12 13.08 ЮВ 2 20 км {дождь} 10/6 600 м
[Cb cap As op]
+19.5 +19.2 98 +23 +23 комфорт 1008.9 983.8
15 13.08 штиль 0 20 км в посл. час ливневой дождь 10/5 600 м
[Cb cap As op]
+19.1 +18.8 98 +21 +21 комфорт 1008.3 983.2
18 13.08 штиль 0 10 км слаб. ливневой дождь 10/10 600 м
[Cb cap]
+18.8 +18.4 98 +20 +20 1007.1 982.0
21 13.08 В 1 50 км {ливн. осадки} 10/6 600 м
[Sc As op]
+18.2 +17.8 98 +20 +20 1006.2 981.1 +18.2 5
00 14.08 ЮВ 1 50 км {ливн. осадки} 10/8 600 м
[Sc As op]
+19.5 +18.4 93 +23 +23 комфорт 1005.7 980.7
03 14.08 ЮВ 1 50 км 10/8 600 м
[Cb cap Ac lent Ci sp]
+22.0 +19.5 86 +28 +29 душно 1004.4 979.7
06 14.08 ЮВ 3 50 км 9/4 600 м
[Cb cap Ac lent Cc]
+22.2 +19.5 85 +28 +31 душно 1003.4 978.7
09 14.08 ЮВ 3 50 км 8/3 600 м
[Cb cap Ac lent Cc]
+20.5 +18.6 89 +25 +25 комфорт 1003.1 978.3 +22.6
12 14.08 ЮВ 2 20 км 8/4 600 м
[Cb cap Ac lent Ci sp]
+18.9 +17.5 92 +21 +21 комфорт 1004.3 979.3
15 14.08 Ю 3 20 км 10/4 600 м
[Sc As trans Cs]
+18.6 +16.9 90 +20 +20 1004.0 978.9
18 14.08 Ю 3 20 км 10/5 600 м
[Sc As op]
+18.6 +16.5 88 +20 +20 1003.7 978.7
21 14.08 СВ 1 50 км 9/6 600 м
[Sc Ac trans Ci sp]
+17.6 +16.6 94 +19 +19 1003.2 978.1 +17.3
00 15.08 ЮВ 2 50 км 10/6 600 м
[Sc As trans Cs]
+20.2 +17.8 86 +24 +26 комфорт 1002.4 977.6
03 15.08 Ю 1 50 км {ливн. осадки} 10/5 600 м
[Cb cap Ac lent Cs]
+21.1 +19.2 89 +26 +30 душно 1001.9 977.1
06 15.08 ЮВ 1 10 км слаб. дождь 10/10 600 м
[Frnb Ns]
+21.6 +20.0 91 +27 +27 душно 1000.8 976.1
09 15.08 штиль 0 10 км слаб. дождь 10/10 600 м
[Frnb Ns]
+20.3 +19.8 97 +24 +24 комфорт 999.9 975.1 +22.9 5
12 15.08 С 1 10 км слаб. дождь 10/10 600 м
[Frnb Ns]
+19.6 +19.3 98 +23 +23 комфорт 999.1 974.2
15 15.08 СВ 2 2000 м дождь 10/10 600 м
[Frnb Ns]
+19.3 +19.0 98 +22 +22 комфорт 996.8 971.9
18 15.08 СВ 1 2000 м дождь 10/10 600 м
[Frnb Ns]
+18.4 +18.1 98 +20 +20 995.2 970.3
21 15.08 СЗ 1 2000 м дождь 10/10 600 м
[Frnb Ns]
+18.4 +18.1 98 +20 +20 994.0 969.1 +18.4 47
00 16.08 З 1 2000 м дождь 10/10 600 м
[Frnb Ns]
+19.0 +18.7 98 +22 +22 комфорт 992.8 968.1
03 16.08 СВ 1 2000 м дождь 10/10 600 м
[Frnb Ns]
+19.3 +19.0 98 +23 +23 комфорт 991.9 967.3
06 16.08 В 1 10 км слаб. дождь 10/10 600 м
[Frnb Ns]
+20.1 +19.8 98 +25 +25 комфорт 990.8 966.2
09 16.08 В 1 50 км {дождь} 10/6 600 м
[Sc Ac trans Ci fib]
+21.2 +20.5 96 +26 +27 душно 990.4 965.9 +21.2 69
12 16.08 штиль 0 20 км {дождь} 10/8 600 м
[Sc As trans Ci fib]
+20.3 +20.0 98 +24 +24 комфорт 991.4 966.8
15 16.08 З 1 4000 м дымка 10/6 600 м
[Sc Ac trans Ci fib]
+19.7 +19.4 98 +24 +24 комфорт 991.5 966.9
18 16.08 штиль 0 1000 м дымка 10/0
[As trans]
+19.6 +19.3 98 +22 +22 комфорт 991.7 967.0
21 16.08 ЮЗ 1 500 м туман ?/? +19.1 +19.1 100 +22 +22 комфорт 992.7 968.0 +18.9 0.7
00 17.08 ЮВ 2 50 км {туман} 8/6 600 м
[Cb cap Ci sp]
+21.7 +21.1 96 +28 +31 душно 992.6 968.2
03 17.08 ЮВ 5 50 км 8/5 600 м
[Cb cap Cc]
+25.7 +21.8 79 +33 +37 очень
душно
992.6 968.4
06 17.08 ЮВ 5
{11}
50 км 6/4 600 м
[Cb cap Ci fib]
+24.3 +20.0 77 +30 +33 очень
душно
993.0 968.7
09 17.08 Ю 4
{10}
50 км 3/3 600 м
[Sc diur, vesp]
+21.9 +18.6 82 +27 +27 душно 994.1 969.6 +25.9
12 17.08 Ю 2 20 км 3/0
[Ac lent]
+18.2 +17.1 93 +19 +19 998.0 973.0
15 17.08 СВ 1 20 км 1/0
[Ac lent]
+17.2 +16.4 95 +18 +18 999.5 974.4
18 17.08 СЗ 1 4000 м дымка 3/0
[Ac lent Ci fib]
+15.9 +15.2 96 +17 +17 1001.0 975.7
21 17.08 Ю 3 50 км 8/5 600 м
[Cb cap Ac lent Ci sp]
+17.4 +16.3 93 +17 +17 1002.0 976.9 +15.0
00 18.08 Ю 3 50 км 8/5 600 м
[Cb cap Ci fib]
+21.5 +17.5 78 +26 +29 душно 1002.8 978.0
03 18.08 Ю 3 50 км 8/5 600 м
[Cb cap Ci fib]
+24.3 +17.3 65 +28 +34 душно 1003.0 978.4
06 18.08 ЮВ 2 50 км 9/8 600 м
[Cb cap Ci fib]
+24.4 +18.8 71 +29 +31 душно 1002.8 978.2
09 18.08 Ю 1 50 км 8/5 600 м
[Cb cap Ac lent Ci sp]
+20.4 +18.8 91 +25 +26 комфорт 1004.9 980.0 +25.7
12 18.08 З 1 20 км 3/0
[Ac trans]
+17.4 +17.1 98 +18 +18 1007.6 982.3
15 18.08 ЮЗ 2 20 км 4/0
[Ci fib]
+15.8 +15.5 98 +16 +16 1009.2 983.8
18 18.08 С 1 20 км 3/0
[Ci fib]
+14.4 +14.1 98 +15 +15 1010.3 984.7
21 18.08 штиль 0 1000 м дымка 10/0
[Cs]
+14.7 +14.5 99 +14 +14 1011.3 985.7 +14.0

 

Местоположение метеостанции Пограничный (Приморский край, Россия): широта 44.40 долгота 131.30 высота над уровнем моря 211 м.

В архиве по умолчанию представлена погода в Пограничном за последнюю неделю. Архивные данные за месяц целиком и за предыдущие месяцы, начиная с января 2011 года, Вы можете получить, выбрав интересующий диапазон дат из раскрывающегося списка и нажав кнопку "Ввод!".


*Определитесь, кто Вы:
робот инопланетянин человек

Внимание! Время в таблицах - всемирное. Для получения местного времени необходимо прибавить поправку, которая равна 10 ч.

Смотрите также архив погоды в соседних городах и на ближайших метеорологических станциях:

Погода в Суйфэньхэ (Хэйлунцзян, Китай) (12 км)
Погода в Полтавке (Приморский край, Россия) (41 км)
Погода в Хороле (Приморский край, Россия) (56 км)
Погода в Астраханке (Приморский край, Россия) (66 км)
Погода в Тимирязевском (Приморский край, Россия) (75 км)
Погода в Цзиси (Хэйлунцзян, Китай) (102 км)
Погода в Турьем Роге (Приморский край, Россия) (105 км)
Погода в Спасск-Дальнем (Приморский край, Россия) (122 км)
Погода в Барабаше (Приморский край, Россия) (134 км)
Погода в Муданьцзяне (Хэйлунцзян, Китай) (136 км)

Пояснения к столбцам:

Ветер - указаны скорость ветра в м/с - средняя за 10 мин, порывы в срок и между сроками (в фигурных скобках) и направление, откуда дует ветер: С - северный, СВ - северо-восточный, В - восточный, ЮВ - юго-восточный, Ю - южный, ЮЗ - юго-западный, З - западный, СЗ - северо-западный.
Видимость - горизонтальная дальность видимости в метрах или километрах. При видимости от 1 до 10 км при отсутствии осадков обычно наблюдается дымка, при ухудшении видимости до 1 км и менее - туман. В сухую погоду видимость может ухудшаться дымом, пылью или мглою.
Явления - указаны атмосферные явления, наблюдавшиеся в срок или в последний час перед сроком; фигурными скобками обозначены явления, наблюдавшиеся между сроками (за 1-3 часа до срока); квадратными скобками обозначены град или гололедные отложения с указанием их диаметра в мм.
Облачность - указаны через наклонную черту общая и нижняя облачность в баллах и высота нижней границы облаков в метрах; квадратными скобками обозначены формы облаков: Ci - перистые, Cs - перисто-слоистые, Cc - перисто-кучевые, Ac - высококучевые, As - высокослоистые, Sc - слоисто-кучевые, Ns - слоисто-дождевые, Cu - кучевые, Cb - кучево-дождевые. Подробнее классификацию облаков см. в Атласе облаков (PDF).
T - Температура воздуха - температура, измеренная на высоте 2 м над землей.
Td - Температура точки росы - температура, при понижении до которой содержащийся в воздухе водяной пар достигнет насыщения.
f - Относительная влажность воздуха - влажноcть воздуха, измеренная на высоте 2 м над землей.
Te - Эффективная температура - температура, которую ощущает одетый по сезону человек в тени. Характеристика душности погоды. При расчете учитывается влияние влажности воздуха и скорости ветра на теплоощущения человека.
Tes - Эффективная температура на солнце - температура, которую ощущает человек, с поправкой на солнечный нагрев. Характеристика знойности погоды. Зависит от высоты солнца над горизонтом, облачности и скорости ветра. Ночью, в пасмурную погоду, а также при ветре 12 м/с и более поправка равна нулю.
P - Атмосферное давление - приведенное к уровню моря атмосферное давление.
Po - Атмосферное давление - измеренное на уровне метеостанции атмосферное давление.
Tmin - Минимальная температура - минимум температуры воздуха на высоте 2 м над землей.
Tmax - Максимальная температура - максимум температуры воздуха на высоте 2 м над землей.
R - Количество осадков - Количество выпавших осадков за период времени, мм. При наведении курсора мыши на число - период времени, за который выпало указанное количество осадков.
R24 - Количество осадков - Количество выпавших осадков за 24 часа, мм.
S - Снежный покров - Высота снежного покрова, см. При наведении курсора мыши на число - состояние снежного покрова и степень покрытия местности в баллах.